Location: Bergfeld
(52.0500°N, 11.7833°E)
Time: 04:10:05
(UTC+00:00)

USA 215 - Pass Details

Date: 17 February 2020
Orbit: 1098 x 1110 km, 123.0° (Epoch: 08 March)

Event Time Altitude Azimuth Distance (km) Brightness Sun altitude
Rises 04:53:05 0° 82° (E) 3,917 8.0 -14.8°
Reaches altitude 10° 04:55:35 10° 79° (ENE) 2,960 6.8 -14.4°
Maximum altitude 05:01:58 59° 2° (N) 1,266 3.6 -13.4°
Enters shadow 05:07:21 15° 288° (WNW) 2,591 4.6 -12.6°
